FW4555 Des Moines WA US current weather conditions

sailwx.info

Wind from 274 at 1 knots gusting 3

Air temperature 17.2° C
Dewpoint 11.7° C

Last reported at 2020-Jul-10 19:00 UTC.
Time now 2020-Jul-10 19:26 UTC

Location: N 47°23' W 122°20'.
View on Google Maps.

See reports from other nearby stations

  
Tides and Currents Weather Stations Pressure Air Temp Water Temp Dewpoint Dewpoint Depression Visibility Wind Speed Wind Dir Waves Ship Positions
date/time (UTC)wind fromknots sea level pressurealtimeterstation pressurevisibilityair tempwater tempwave heightnotes
2020-Jul-10 19:00 274 1 gusting 3 17.2
2020-Jul-10 18:55 288 2 gusting 3 16.7
2020-Jul-10 18:50 274 2 gusting 4 16.7
2020-Jul-10 18:46 293 2 gusting 4 16.1
2020-Jul-10 18:40 292 2 gusting 4 16.1
2020-Jul-10 18:35 278 2 gusting 4 16.1
2020-Jul-10 18:30 276 2 gusting 4 16.1
2020-Jul-10 18:25 310 2 gusting 4 16.1
2020-Jul-10 18:20 273 1 gusting 3 16.1
2020-Jul-10 18:15 284 1 gusting 3 15.6
2020-Jul-10 18:10 288 1 gusting 3 15.6
2020-Jul-10 17:55 285 1 gusting 3 15.0
2020-Jul-10 17:50 259 1 gusting 3 15.0
2020-Jul-10 17:45 278 1 gusting 3 15.0
2020-Jul-10 17:40 273 1 gusting 4 15.0
2020-Jul-10 17:35 276 2 gusting 4 15.0
2020-Jul-10 17:25 223 1 gusting 5 15.0
2020-Jul-10 17:20 233 1 gusting 6 15.0
2020-Jul-10 17:15 230 3 gusting 6 15.0
2020-Jul-10 17:06 267 2 gusting 4 14.4
2020-Jul-10 17:02 245 0 gusting 5 14.4
2020-Jul-10 16:55 275 2 gusting 5 14.4
2020-Jul-10 16:50 273 3 gusting 5 14.4
2020-Jul-10 16:46 260 3 gusting 5 14.4
2020-Jul-10 16:41 224 2 gusting 5 15.0
2020-Jul-10 16:35 250 1 gusting 3 15.0
2020-Jul-10 16:31 240 0 gusting 5 15.0
2020-Jul-10 16:25 263 2 gusting 6 15.0
2020-Jul-10 16:20 234 2 gusting 6 15.0
2020-Jul-10 16:16 254 0 gusting 4 15.0
2020-Jul-10 16:11 252 1 gusting 4 15.0
2020-Jul-10 16:06 128 0 gusting 4 15.0
2020-Jul-10 16:01 136 0 gusting 4 15.0
2020-Jul-10 15:55 164 0 gusting 4 15.0
2020-Jul-10 15:51 155 2 gusting 4 15.0
2020-Jul-10 15:46 146 1 gusting 5 14.4
2020-Jul-10 15:40 139 0 gusting 5 14.4
2020-Jul-10 15:35 162 1 gusting 6 14.4
2020-Jul-10 15:31 143 2 gusting 6 14.4
2020-Jul-10 15:25 150 2 gusting 5 14.4
2020-Jul-10 15:20 148 0 gusting 5 14.4
2020-Jul-10 15:16 174 2 gusting 5 14.4
2020-Jul-10 15:10 147 1 gusting 5 14.4
2020-Jul-10 15:05 147 2 gusting 5 14.4
2020-Jul-10 15:01 158 3 gusting 4 14.4
2020-Jul-10 14:55 252 2 gusting 5 14.4
2020-Jul-10 14:50 152 2 gusting 5 14.4
2020-Jul-10 14:46 160 2 gusting 5 14.4
2020-Jul-10 14:40 180 1 gusting 5 13.9
2020-Jul-10 14:35 136 2 gusting 4 13.9
2020-Jul-10 14:30 139 0 gusting 3 13.9
2020-Jul-10 14:25 160 0 gusting 4 13.9
2020-Jul-10 14:20 150 0 gusting 3 13.9
2020-Jul-10 14:15 221 0 gusting 3 13.9
2020-Jul-10 14:10 150 0 gusting 4 13.9
2020-Jul-10 14:05 160 0 gusting 4 13.9
2020-Jul-10 14:00 215 1 gusting 4 13.9
2020-Jul-10 13:55 141 0 gusting 4 13.9
2020-Jul-10 13:50 158 0 gusting 5 13.9
2020-Jul-10 13:45 124 2 gusting 5 13.9
2020-Jul-10 13:40 167 3 gusting 5 13.3
2020-Jul-10 13:35 179 0 gusting 5 13.3
2020-Jul-10 13:30 221 3 gusting 5 13.3
2020-Jul-10 13:25 192 2 gusting 5 13.3
2020-Jul-10 13:15 193 1 gusting 4 13.3
2020-Jul-10 13:10 181 2 gusting 4 13.3
2020-Jul-10 13:05 159 0 gusting 3 13.3
2020-Jul-10 12:55 146 0 gusting 3 13.3
2020-Jul-10 12:50 198 1 gusting 3 13.3
2020-Jul-10 12:45 229 0 gusting 3 13.3
2020-Jul-10 12:40 216 0 gusting 3 13.3
2020-Jul-10 12:35 231 13.3
2020-Jul-10 12:30 205 1 gusting 5 13.3
2020-Jul-10 12:25 171 0 gusting 4 13.3
2020-Jul-10 12:20 158 1 gusting 4 13.3
2020-Jul-10 12:15 158 1 gusting 3 13.3
2020-Jul-10 12:06 229 0 gusting 1 13.3
2020-Jul-10 12:01 158 13.3
2020-Jul-10 11:55 145 0 gusting 2 13.3
2020-Jul-10 11:50 143 0 gusting 3 13.3
2020-Jul-10 11:46 255 1 gusting 3 13.3
2020-Jul-10 11:41 206 0 gusting 4 13.3
2020-Jul-10 11:36 236 0 gusting 4 13.3
2020-Jul-10 11:31 221 0 gusting 3 13.3
2020-Jul-10 11:25 236 0 gusting 3 13.3
2020-Jul-10 11:20 227 0 gusting 2 13.3
2020-Jul-10 11:16 108 13.3
2020-Jul-10 11:10 229 1 gusting 4 13.3
2020-Jul-10 11:05 141 0 gusting 4 13.3
2020-Jul-10 11:01 219 1 gusting 6 13.3
2020-Jul-10 10:55 228 3 gusting 7 13.3
2020-Jul-10 10:50 238 4 gusting 7 13.3
2020-Jul-10 10:46 255 3 gusting 6 13.3
2020-Jul-10 10:40 247 3 gusting 6 13.3
2020-Jul-10 10:35 259 3 gusting 6 13.3
2020-Jul-10 10:31 207 2 gusting 5 13.3
2020-Jul-10 10:25 249 0 gusting 5 13.3
2020-Jul-10 10:20 219 0 gusting 7 13.9
2020-Jul-10 10:16 252 1 gusting 7 13.9
2020-Jul-10 10:10 242 5 gusting 7 13.9
2020-Jul-10 10:05 270 4 gusting 7 13.9
2020-Jul-10 10:01 215 5 gusting 8 13.9
2020-Jul-10 09:55 261 5 gusting 8 13.9
2020-Jul-10 09:50 222 4 gusting 6 13.9
2020-Jul-10 09:45 252 1 gusting 5 13.3
2020-Jul-10 09:40 257 0 gusting 3 13.3
2020-Jul-10 09:35 137 0 gusting 2 13.3
2020-Jul-10 09:31 196 0 gusting 1 13.3
2020-Jul-10 09:25 205 13.3
2020-Jul-10 09:20 205 13.3
2020-Jul-10 09:15 162 13.3
2020-Jul-10 09:05 026 13.3
2020-Jul-10 09:00 026 13.3
2020-Jul-10 08:55 027 13.3
2020-Jul-10 08:50 027 13.3
2020-Jul-10 08:40 027 13.9
2020-Jul-10 08:35 027 13.9
2020-Jul-10 08:25 325 13.9
2020-Jul-10 08:20 325 13.9
2020-Jul-10 08:10 324 13.9
2020-Jul-10 08:00 324 13.9
2020-Jul-10 07:55 324 13.9
2020-Jul-10 07:50 324 13.9
2020-Jul-10 07:45 324 13.9
2020-Jul-10 07:40 324 13.9
2020-Jul-10 07:35 324 0 gusting 1 13.9
2020-Jul-10 07:30 294 0 gusting 2 13.9
2020-Jul-10 07:25 279 13.9
2020-Jul-10 07:18 302 0 gusting 3 13.9
2020-Jul-10 07:11 290 1 gusting 3 13.9
2020-Jul-10 07:06 285 0 gusting 1 13.9
2020-Jul-10 07:02 290 13.9
2020-Jul-10 06:55 309 0 gusting 2 13.9
2020-Jul-10 06:50 314 0 gusting 2 14.4
2020-Jul-10 06:46 307 13.9
2020-Jul-10 06:40 302 13.9
2020-Jul-10 06:35 255 13.9
2020-Jul-10 06:32 248 13.9
2020-Jul-10 06:25 330 13.9
2020-Jul-10 06:20 330 13.9
2020-Jul-10 06:16 033 13.9
2020-Jul-10 06:10 034 0 gusting 4 13.9
2020-Jul-10 06:05 266 1 gusting 4 13.9
2020-Jul-10 06:01 309 1 gusting 4 14.4
2020-Jul-10 05:55 263 0 gusting 4 14.4
2020-Jul-10 05:51 298 1 gusting 6 14.4
2020-Jul-10 05:46 308 3 gusting 6 14.4
2020-Jul-10 05:40 323 3 gusting 5 14.4
2020-Jul-10 05:35 302 2 gusting 3 14.4
2020-Jul-10 05:31 319 0 gusting 4 14.4
2020-Jul-10 05:25 309 1 gusting 4 14.4
2020-Jul-10 05:20 293 1 gusting 3 14.4
2020-Jul-10 05:17 308 0 gusting 3 14.4
2020-Jul-10 05:10 314 1 gusting 3 14.4
2020-Jul-10 05:05 314 0 gusting 3 14.4
2020-Jul-10 05:01 316 1 gusting 3 14.4
2020-Jul-10 04:55 302 1 gusting 3 14.4
2020-Jul-10 04:50 015 14.4
2020-Jul-10 04:45 342 1 gusting 6 14.4
2020-Jul-10 04:40 318 3 gusting 6 14.4
2020-Jul-10 04:35 320 2 gusting 5 14.4
2020-Jul-10 04:30 014 2 gusting 5 14.4
2020-Jul-10 04:25 309 2 gusting 5 14.4
2020-Jul-10 04:20 318 1 gusting 5 14.4
2020-Jul-10 04:15 156 0 gusting 5 14.4
2020-Jul-10 04:10 316 1 gusting 6 14.4
2020-Jul-10 04:05 342 0 gusting 5 15.0
2020-Jul-10 04:00 300 0 gusting 7 15.0
2020-Jul-10 03:55 089 1 gusting 10 15.0
2020-Jul-10 03:50 316 6 gusting 10 15.0
2020-Jul-10 03:40 347 6 gusting 9 15.6
2020-Jul-10 03:35 344 3 gusting 9 15.6
2020-Jul-10 03:25 323 4 gusting 9 15.6
2020-Jul-10 03:20 313 6 gusting 9 16.1
2020-Jul-10 03:15 318 4 gusting 8 16.7
2020-Jul-10 03:05 306 6 gusting 10 16.7
2020-Jul-10 03:00 304 6 gusting 10 16.7
2020-Jul-10 02:55 321 5 gusting 8 16.7
2020-Jul-10 02:50 316 4 gusting 8 16.7
2020-Jul-10 02:40 303 3 gusting 8 16.7
2020-Jul-10 02:35 324 5 gusting 8 16.7
2020-Jul-10 02:25 314 3 gusting 8 17.2
2020-Jul-10 02:20 324 4 gusting 9 17.2
2020-Jul-10 02:15 295 6 gusting 11 17.2
2020-Jul-10 02:10 311 6 gusting 11 16.7
2020-Jul-10 02:05 311 6 gusting 10 16.7
2020-Jul-10 02:00 300 4 gusting 7 17.2
2020-Jul-10 01:55 330 4 gusting 7 17.2
2020-Jul-10 01:50 330 2 gusting 6 17.2
2020-Jul-10 01:41 328 4 gusting 7 16.7
2020-Jul-10 01:36 295 5 gusting 7 17.2
2020-Jul-10 01:31 311 4 gusting 6 17.2
2020-Jul-10 01:25 316 2 gusting 6 17.2
2020-Jul-10 01:21 341 3 gusting 7 17.2
2020-Jul-10 01:16 322 4 gusting 7 17.8
2020-Jul-10 01:11 309 5 gusting 8 17.2
2020-Jul-10 01:05 321 4 gusting 6 17.8
2020-Jul-10 01:02 316 2 gusting 7 17.8
2020-Jul-10 00:56 302 4 gusting 7 18.3
2020-Jul-10 00:51 315 5 gusting 8 19.4
2020-Jul-10 00:47 262 4 gusting 8 19.4
2020-Jul-10 00:40 255 6 gusting 8 19.4
2020-Jul-10 00:35 219 5 gusting 8 20.0
2020-Jul-10 00:31 243 5 gusting 8 20.0
2020-Jul-10 00:20 255 2 gusting 5 20.0
2020-Jul-10 00:16 258 2 gusting 5 19.4
2020-Jul-10 00:10 200 2 gusting 7 20.0
2020-Jul-10 00:06 260 3 gusting 7 20.0
2020-Jul-09 23:55 227 4 gusting 6 20.0
2020-Jul-09 23:50 264 3 gusting 6 20.0
2020-Jul-09 23:46 229 3 gusting 6 20.0
2020-Jul-09 23:40 209 3 gusting 9 19.4
2020-Jul-09 23:30 206 6 gusting 10 19.4
2020-Jul-09 23:25 229 6 gusting 10 19.4
2020-Jul-09 23:20 240 5 gusting 9 19.4
2020-Jul-09 23:15 251 6 gusting 8 19.4
2020-Jul-09 23:10 219 6 gusting 8 20.0
2020-Jul-09 23:05 213 4 gusting 7 20.0
2020-Jul-09 23:01 254 3 gusting 6 20.0
2020-Jul-09 22:55 241 4 gusting 6 20.0
2020-Jul-09 22:50 226 3 gusting 5 20.6
2020-Jul-09 22:46 224 3 gusting 6 20.0
2020-Jul-09 22:40 215 3 gusting 6 20.0
2020-Jul-09 22:35 273 2 gusting 6 20.0
2020-Jul-09 22:30 247 3 gusting 6 19.4
2020-Jul-09 22:25 221 3 gusting 5 19.4
2020-Jul-09 22:20 250 3 gusting 5 20.0
2020-Jul-09 22:15 228 1 gusting 5 20.0
2020-Jul-09 22:10 244 2 gusting 5 20.0
2020-Jul-09 22:05 252 1 gusting 5 20.0
2020-Jul-09 22:00 226 1 gusting 6 20.0
2020-Jul-09 21:55 240 2 gusting 6 20.6
2020-Jul-09 21:50 231 0 gusting 5 20.6
2020-Jul-09 21:46 253 1 gusting 5 20.0
2020-Jul-09 21:40 224 0 gusting 3 20.0
2020-Jul-09 21:35 246 0 gusting 4 20.0
2020-Jul-09 21:30 251 1 gusting 3 20.0
2020-Jul-09 21:25 191 0 gusting 3 19.4
2020-Jul-09 21:20 234 1 gusting 3 19.4
2020-Jul-09 21:15 216 1 gusting 3 19.4
2020-Jul-09 21:10 269 1 gusting 3 19.4
2020-Jul-09 21:05 232 1 gusting 3 18.9
2020-Jul-09 20:55 235 2 gusting 3 19.4
2020-Jul-09 20:50 243 1 gusting 4 18.9
2020-Jul-09 20:40 252 1 gusting 4 18.9
2020-Jul-09 20:35 266 1 gusting 4 18.9
2020-Jul-09 20:25 227 0 gusting 4 18.9
2020-Jul-09 20:20 225 1 gusting 4 18.9
2020-Jul-09 20:17 282 0 gusting 3 18.3
2020-Jul-09 20:11 271 1 gusting 4 17.8
2020-Jul-09 20:05 272 1 gusting 4 17.8
2020-Jul-09 20:01 264 2 gusting 3 17.8
2020-Jul-09 19:55 259 1 gusting 3 17.8
2020-Jul-09 19:50 328 1 gusting 4 17.2
2020-Jul-09 19:45 298 1 gusting 4 17.2
2020-Jul-09 19:40 306 1 gusting 3 17.2
2020-Jul-09 19:36 252 1 gusting 3 17.2
2020-Jul-09 19:31 318 1 gusting 2 17.2
2020-Jul-09 19:25 281 1 gusting 3 16.7
2020-Jul-09 19:20 323 1 gusting 3 16.7
2020-Jul-09 19:16 308 1 gusting 3 16.7
2020-Jul-09 19:10 305 1 gusting 3 16.7
2020-Jul-09 19:05 283 0 gusting 3 16.1
2020-Jul-09 19:00 280 1 gusting 3 16.1
2020-Jul-09 18:55 246 0 gusting 3 16.1
2020-Jul-09 18:50 271 1 gusting 3 16.1
2020-Jul-09 18:46 269 1 gusting 3 15.6
2020-Jul-09 18:40 243 2 gusting 3 15.6
2020-Jul-09 18:35 249 0 gusting 4 15.6
2020-Jul-09 18:30 274 1 gusting 4 15.6
2020-Jul-09 18:25 237 2 gusting 4 15.6
2020-Jul-09 18:20 236 1 gusting 3 15.6
2020-Jul-09 18:15 247 1 gusting 2 15.6
2020-Jul-09 18:10 223 0 gusting 2 15.6
2020-Jul-09 18:05 256 0 gusting 2 15.6
2020-Jul-09 18:00 214 0 gusting 2 15.0
2020-Jul-09 17:55 239 0 gusting 2 15.0
2020-Jul-09 17:50 272 1 gusting 2 15.6
2020-Jul-09 17:45 262 0 gusting 2 15.6
2020-Jul-09 17:40 229 1 gusting 2 15.6
2020-Jul-09 17:35 271 1 gusting 2 15.6
2020-Jul-09 17:30 250 0 gusting 2 15.0
2020-Jul-09 17:25 265 0 gusting 2 15.6
2020-Jul-09 17:15 250 0 gusting 1 15.0
2020-Jul-09 17:05 271 0 gusting 1 15.0
2020-Jul-09 17:00 269 15.0
2020-Jul-09 16:55 282 0 gusting 1 15.0
2020-Jul-09 16:50 277 0 gusting 1 15.0
2020-Jul-09 16:40 265 15.0
2020-Jul-09 16:35 240 0 gusting 2 15.0
2020-Jul-09 16:25 238 15.0
2020-Jul-09 16:20 230 0 gusting 2 15.0
2020-Jul-09 16:10 248 0 gusting 2 15.0
2020-Jul-09 16:05 247 15.0
2020-Jul-09 16:00 216 0 gusting 2 15.0
2020-Jul-09 15:55 224 0 gusting 3 15.0
2020-Jul-09 15:50 257 15.0
2020-Jul-09 15:45 248 0 gusting 3 15.0
2020-Jul-09 15:40 228 0 gusting 2 15.0
2020-Jul-09 15:35 258 0 gusting 2 15.0
2020-Jul-09 15:30 165 15.0
2020-Jul-09 15:20 214 0 gusting 2 15.0
2020-Jul-09 15:17 254 15.0
2020-Jul-09 15:10 220 15.0
2020-Jul-09 15:05 158 15.0
2020-Jul-09 15:02 133 15.0
2020-Jul-09 14:55 212 14.4
2020-Jul-09 14:50 240 14.4
2020-Jul-09 14:46 263 1 gusting 2 15.0
2020-Jul-09 14:40 264 15.0
2020-Jul-09 14:35 267 15.0
2020-Jul-09 14:32 267 15.0
2020-Jul-09 14:25 267 15.0
2020-Jul-09 14:20 236 15.0
2020-Jul-09 14:16 247 15.0
2020-Jul-09 14:10 238 15.0
2020-Jul-09 14:05 185 15.0
2020-Jul-09 14:02 218 15.0
2020-Jul-09 13:55 219 14.4
2020-Jul-09 13:50 159 0 gusting 1 14.4
2020-Jul-09 13:47 141 0 gusting 1 14.4
2020-Jul-09 13:40 210 0 gusting 1 15.0
2020-Jul-09 13:35 155 15.0
2020-Jul-09 13:31 160 0 gusting 1 15.0
2020-Jul-09 13:25 131 0 gusting 1 15.0
2020-Jul-09 13:20 148 0 gusting 2 15.0
2020-Jul-09 13:17 162 0 gusting 2 15.0
2020-Jul-09 13:10 148 14.4
2020-Jul-09 13:05 156 14.4
2020-Jul-09 13:01 152 14.4
2020-Jul-09 12:55 166 14.4
2020-Jul-09 12:50 158 14.4
2020-Jul-09 12:46 161 14.4
2020-Jul-09 12:40 184 14.4
2020-Jul-09 12:35 219 0 gusting 3 14.4
2020-Jul-09 12:30 251 0 gusting 1 14.4
2020-Jul-09 12:25 203 0 gusting 1 14.4
2020-Jul-09 12:20 157 0 gusting 2 14.4
2020-Jul-09 12:16 186 0 gusting 1 14.4
2020-Jul-09 12:10 148 14.4
2020-Jul-09 12:05 188 0 gusting 2 14.4
2020-Jul-09 12:00 171 14.4
2020-Jul-09 11:55 256 14.4
2020-Jul-09 11:50 256 14.4
2020-Jul-09 11:45 256 14.4
2020-Jul-09 11:40 255 14.4
2020-Jul-09 11:35 255 14.4
2020-Jul-09 11:25 248 14.4
2020-Jul-09 11:20 248 14.4
2020-Jul-09 11:15 261 14.4
2020-Jul-09 11:05 342 14.4
2020-Jul-09 10:55 342 14.4
2020-Jul-09 10:50 342 14.4
2020-Jul-09 10:45 342 14.4
2020-Jul-09 10:40 342 14.4
2020-Jul-09 10:35 342 14.4
2020-Jul-09 10:25 358 14.4
2020-Jul-09 10:20 359 14.4
2020-Jul-09 10:10 359 13.9
2020-Jul-09 10:01 319 13.9
2020-Jul-09 09:56 319 13.9
2020-Jul-09 09:50 319 13.9
2020-Jul-09 09:47 321 0 gusting 2 13.9
2020-Jul-09 09:40 328 13.9
2020-Jul-09 09:31 328 13.9
2020-Jul-09 09:25 328 13.9
2020-Jul-09 09:21 328 13.9
2020-Jul-09 09:16 311 13.9
2020-Jul-09 09:10 311 13.9
2020-Jul-09 09:05 309 0 gusting 1 13.9
2020-Jul-09 09:01 321 0 gusting 1 13.9
2020-Jul-09 08:50 304 13.9
2020-Jul-09 08:46 304 0 gusting 2 13.9
2020-Jul-09 08:41 285 0 gusting 1 13.9
2020-Jul-09 08:35 301 13.9
2020-Jul-09 08:31 306 0 gusting 1 13.9
2020-Jul-09 08:25 265 13.9
2020-Jul-09 08:20 273 13.9
2020-Jul-09 08:17 267 13.9
2020-Jul-09 08:10 160 13.9
2020-Jul-09 08:05 169 13.9
2020-Jul-09 08:01 155 13.9
2020-Jul-09 07:55 155 0 gusting 1 13.9
2020-Jul-09 07:50 150 13.9
2020-Jul-09 07:47 149 13.9
2020-Jul-09 07:40 167 13.9
2020-Jul-09 07:35 311 13.9
2020-Jul-09 07:31 311 13.9
2020-Jul-09 07:25 317 0 gusting 2 14.4
2020-Jul-09 07:20 326 14.4
2020-Jul-09 07:16 334 1 gusting 4 13.9
2020-Jul-09 07:10 308 2 gusting 4 14.4
2020-Jul-09 07:05 311 0 gusting 2 14.4
2020-Jul-09 07:01 296 14.4
2020-Jul-09 06:55 248 14.4
2020-Jul-09 06:50 319 0 gusting 2 14.4
2020-Jul-09 06:45 023 0 gusting 2 14.4
2020-Jul-09 06:40 056 0 gusting 6 14.4
2020-Jul-09 06:35 049 0 gusting 6 14.4
2020-Jul-09 06:30 304 3 gusting 7 14.4
2020-Jul-09 06:25 300 3 gusting 7 14.4
2020-Jul-09 06:20 326 5 gusting 7 14.4
2020-Jul-09 06:15 300 2 gusting 5 14.4
2020-Jul-09 06:10 314 2 gusting 6 14.4
2020-Jul-09 06:05 293 1 gusting 6 14.4
2020-Jul-09 06:01 294 2 gusting 6 14.4
2020-Jul-09 05:55 288 1 gusting 4 14.4
2020-Jul-09 05:50 294 0 gusting 5 14.4
2020-Jul-09 05:45 271 0 gusting 8 14.4
2020-Jul-09 05:40 309 5 gusting 8 14.4
2020-Jul-09 05:35 304 5 gusting 7 15.0
2020-Jul-09 05:25 324 3 gusting 8 15.0
2020-Jul-09 05:20 293 6 gusting 8 15.0
2020-Jul-09 05:10 329 3 gusting 9 15.0
2020-Jul-09 05:05 323 4 gusting 6 15.6
2020-Jul-09 04:55 289 1 gusting 2 15.6
2020-Jul-09 04:50 295 0 gusting 5 15.6
2020-Jul-09 04:45 309 1 gusting 5 15.6
2020-Jul-09 04:40 304 3 gusting 5 15.6
2020-Jul-09 04:35 317 3 gusting 4 15.6
2020-Jul-09 04:30 310 2 gusting 4 15.6
2020-Jul-09 04:20 316 4 gusting 6 16.1
2020-Jul-09 04:15 314 3 gusting 6 16.1
2020-Jul-09 04:10 324 2 gusting 4 16.1
2020-Jul-09 04:05 316 1 gusting 2 16.1
2020-Jul-09 04:00 304 0 gusting 2 16.7
2020-Jul-09 03:55 326 0 gusting 2 16.7
2020-Jul-09 03:50 308 17.2
2020-Jul-09 03:45 300 17.8
2020-Jul-09 03:40 288 18.3
2020-Jul-09 03:35 334 18.3
2020-Jul-09 03:26 020 18.3
2020-Jul-09 03:21 030 18.3
2020-Jul-09 03:16 299 1 gusting 2 18.9
2020-Jul-09 03:11 291 1 gusting 3 19.4
2020-Jul-09 03:05 313 0 gusting 1 20.0
2020-Jul-09 03:01 224 19.4
2020-Jul-09 02:56 277 19.4
2020-Jul-09 02:51 246 0 gusting 3 20.0
2020-Jul-09 02:46 245 1 gusting 3 20.0
2020-Jul-09 02:41 233 1 gusting 3 20.6
2020-Jul-09 02:35 201 0 gusting 2 20.6
2020-Jul-09 02:31 251 0 gusting 2 20.6
2020-Jul-09 02:25 299 1 gusting 2 20.6
2020-Jul-09 02:20 282 0 gusting 2 21.1
2020-Jul-09 02:16 267 0 gusting 2 21.1
2020-Jul-09 02:10 270 0 gusting 2 21.1
2020-Jul-09 02:05 264 1 gusting 3 21.1
2020-Jul-09 01:55 267 1 gusting 4 21.1
2020-Jul-09 01:50 230 1 gusting 4 21.1
2020-Jul-09 01:46 229 2 gusting 3 21.1
2020-Jul-09 01:40 221 1 gusting 4 21.1
2020-Jul-09 01:35 271 1 gusting 4 21.1
2020-Jul-09 01:30 205 1 gusting 4 21.1
2020-Jul-09 01:25 223 2 gusting 4 21.1
2020-Jul-09 01:20 240 1 gusting 4 21.1
2020-Jul-09 01:17 266 2 gusting 5 21.1
2020-Jul-09 01:10 246 3 gusting 5 21.1
2020-Jul-09 01:05 219 1 gusting 3 21.1
2020-Jul-09 01:01 206 1 gusting 3 21.1
2020-Jul-09 00:55 210 2 gusting 4 21.1
2020-Jul-09 00:50 216 1 gusting 4 21.1
2020-Jul-09 00:46 214 2 gusting 4 21.1
2020-Jul-09 00:40 231 2 gusting 3 21.1
2020-Jul-09 00:35 229 2 gusting 3 21.1
2020-Jul-09 00:30 238 2 gusting 4 21.1
2020-Jul-09 00:25 224 2 gusting 4 21.1
2020-Jul-09 00:20 244 3 gusting 4 21.1
2020-Jul-09 00:15 282 1 gusting 3 21.7
2020-Jul-09 00:10 255 1 gusting 3 21.7
2020-Jul-09 00:05 255 1 gusting 3 21.1
2020-Jul-09 00:00 287 1 gusting 3 21.1
2020-Jul-08 23:55 274 1 gusting 4 21.1
2020-Jul-08 23:50 229 1 gusting 4 21.1
2020-Jul-08 23:45 269 1 gusting 3 21.1
2020-Jul-08 23:40 320 1 gusting 3 21.1
2020-Jul-08 23:30 245 1 gusting 4 21.1
2020-Jul-08 23:25 260 1 gusting 4 21.1
2020-Jul-08 23:20 253 1 gusting 4 21.1
2020-Jul-08 23:10 229 0 gusting 4 20.6
2020-Jul-08 23:05 284 1 gusting 4 20.6
2020-Jul-08 23:00 289 1 gusting 3 20.6
2020-Jul-08 22:55 285 1 gusting 3 20.6
2020-Jul-08 22:46 303 1 gusting 4 20.0
2020-Jul-08 22:40 276 1 gusting 5 20.0
2020-Jul-08 22:36 269 2 gusting 4 20.0
2020-Jul-08 22:31 273 2 gusting 4 20.0
2020-Jul-08 22:25 289 1 gusting 3 20.0
2020-Jul-08 22:21 259 1 gusting 4 20.0
2020-Jul-08 22:16 244 1 gusting 4 19.4
2020-Jul-08 22:10 238 1 gusting 4 19.4
2020-Jul-08 22:05 271 1 gusting 4 19.4
2020-Jul-08 22:01 247 2 gusting 4 19.4
2020-Jul-08 21:55 271 1 gusting 4 20.0
2020-Jul-08 21:50 228 2 gusting 4 19.4
2020-Jul-08 21:46 305 1 gusting 4 19.4
2020-Jul-08 21:40 280 1 gusting 4 19.4
2020-Jul-08 21:35 259 2 gusting 3 19.4
2020-Jul-08 21:31 215 1 gusting 5 19.4
2020-Jul-08 21:25 247 2 gusting 5 18.9
2020-Jul-08 21:20 236 3 gusting 5 18.9
2020-Jul-08 21:16 252 2 gusting 5 18.9
2020-Jul-08 21:10 283 2 gusting 5 18.9
2020-Jul-08 21:05 243 1 gusting 5 18.3
2020-Jul-08 21:01 238 1 gusting 5 18.9
2020-Jul-08 20:55 250 2 gusting 5 18.3
2020-Jul-08 20:50 233 3 gusting 5 18.3
2020-Jul-08 20:45 240 3 gusting 5 18.3
2020-Jul-08 20:40 252 3 gusting 6 18.3
2020-Jul-08 20:35 228 2 gusting 6 18.3
2020-Jul-08 20:30 205 2 gusting 5 18.3
2020-Jul-08 20:25 232 3 gusting 5 18.3
2020-Jul-08 20:20 250 2 gusting 4 18.3
2020-Jul-08 20:15 232 1 gusting 5 18.3
2020-Jul-08 20:10 236 1 gusting 5 18.3
2020-Jul-08 20:05 321 0 gusting 3 18.3
2020-Jul-08 20:00 269 0 gusting 4 18.3
2020-Jul-08 19:55 283 1 gusting 4 17.8
2020-Jul-08 19:50 316 1 gusting 2 17.8
2020-Jul-08 19:45 300 1 gusting 3 17.8
2020-Jul-08 19:40 276 1 gusting 4 17.8
2020-Jul-08 19:35 311 1 gusting 4 17.8
2020-Jul-08 19:31 314 1 gusting 3 17.8
2020-Jul-08 19:25 265 0 gusting 3 17.2
2020-Jul-08 19:15 326 1 gusting 4 17.2
2020-Jul-08 19:10 262 1 gusting 4 17.2
2020-Jul-08 19:05 288 1 gusting 3 16.7
2020-Jul-08 19:00 299 1 gusting 3 16.7